Tracking 32936 objects as of 16-Jan-2026
HD Live streaming from Space Station
objects crossing your sky now

COSMOS 1691 DEB

Track COSMOS 1691 DEB now!
10-day predictions


NORAD ID: 19111
Int'l Code: 1985-094V
Perigee: 1,376.5 km
Apogee: 1,400.2 km
Inclination: 82.6 °
Period: 113.4 minutes
Semi major axis: 7759 km
RCS: 0.0114 m2 (small)
Launch date: October 9, 1985
Source: Commonwealth of Independent States (former USSR) (CIS)
Launch site: PLESETSK MISSILE AND SPACE COMPLEX (PKMTR)

Note: This is SATELLITE DEBRIS
Your satellite tracking list
Your tracking list is empty




NASA's NSSDC Master Catalog

Two Line Element Set (TLE):
1 19111U 85094W   26016.25272104  .00000244  00000-0  11733-2 0  9994
2 19111  82.6072 303.0789 0015303  35.1599 118.0041 12.70185088754005
Source of the keplerian elements: AFSPC